| time (UTC) | temp C | wind direction | speed KPH | gust KPH | rain 1hr cm | rain 24hr cm | rain mn cm | humidity % | barometer mb |
| 20260505223013 | 28 | 151 | 6.4 | 8.0 | 0.00 | 0.00 | 0.00 | 94 | 1009.0 |
| 20260505221513 | 28 | 164 | 6.4 | 8.0 | 0.00 | 0.00 | 0.00 | 94 | 1009.0 |
| 20260505220013 | 27 | 164 | 6.4 | 8.0 | 0.00 | 0.00 | 0.00 | 94 | 1009.0 |
| 20260505214513 | 27 | 164 | 6.4 | 8.0 | 0.00 | 0.00 | 0.00 | 94 | 1009.0 |
| 20260505213013 | 27 | 164 | 6.4 | 8.0 | 0.00 | 0.00 | 0.00 | 94 | 1009.0 |
| 20260505211513 | 28 | 163 | 8.0 | 9.7 | 0.00 | 0.00 | 0.00 | 95 | 1009.0 |
| 20260505210013 | 28 | 163 | 8.0 | 9.7 | 0.00 | 0.00 | 0.00 | 95 | 1009.0 |
| 20260505204513 | 28 | 163 | 8.0 | 9.7 | 0.00 | 0.00 | 0.00 | 96 | 1009.0 |
| 20260505203013 | 28 | 163 | 8.0 | 9.7 | 0.00 | 0.00 | 0.00 | 96 | 1009.0 |
| 20260505201513 | 28 | 162 | 8.0 | 11.3 | 0.00 | 0.00 | 0.00 | 97 | 1009.0 |
| 20260505200013 | 28 | 162 | 8.0 | 11.3 | 0.00 | 0.00 | 0.00 | 96 | 1009.0 |
| 20260505194513 | 28 | 162 | 8.0 | 11.3 | 0.00 | 0.00 | 0.00 | 96 | 1009.0 |
| 20260505193013 | 28 | 162 | 8.0 | 11.3 | 0.00 | 0.00 | 0.00 | 95 | 1009.0 |
| 20260505191513 | 28 | 165 | 8.0 | 11.3 | 0.00 | 0.00 | 0.00 | 96 | 1009.0 |
| 20260505190013 | 28 | 165 | 8.0 | 11.3 | 0.00 | 0.00 | 0.00 | 93 | 1009.0 |
| 20260505184514 | 28 | 165 | 8.0 | 11.3 | 0.00 | 0.00 | 0.00 | 93 | 1009.0 |
| 20260505183003 | 26 | 200 | 11.3 | 0.0 | 0.00 | 0.00 | 0.00 | 89 | 1009.0 |
| 20260505181503 | 26 | 200 | 11.3 | 0.0 | 0.00 | 0.00 | 0.00 | 89 | 1010.0 |
| 20260505180003 | 26 | 200 | 11.3 | 0.0 | 0.00 | 0.00 | 0.00 | 89 | 1010.0 |
| 20260505174503 | 26 | 200 | 11.3 | 0.0 | 0.00 | 0.00 | 0.00 | 89 | 1010.0 |
| 20260505173003 | 26 | 200 | 11.3 | 0.0 | 0.00 | 0.00 | 0.00 | 89 | 1010.0 |
| 20260505171503 | 26 | 200 | 11.3 | 0.0 | 0.00 | 0.00 | 0.00 | 89 | 1010.0 |
| 20260505170003 | 26 | 200 | 11.3 | 0.0 | 0.00 | 0.00 | 0.00 | 89 | 1010.0 |
| 20260505164503 | 26 | 200 | 11.3 | 0.0 | 0.00 | 0.00 | 0.00 | 89 | 1010.0 |
| 20260505163003 | 26 | 200 | 11.3 | 0.0 | 0.00 | 0.00 | 0.00 | 89 | 1011.0 |
| 20260505161503 | 26 | 200 | 11.3 | 0.0 | 0.00 | 0.00 | 0.00 | 89 | 1011.0 |
| 20260505153003 | 26 | 200 | 11.3 | 0.0 | 0.00 | 0.00 | 0.00 | 89 | 1011.0 |
| 20260505151503 | 26 | 200 | 11.3 | 0.0 | 0.00 | 0.00 | 0.00 | 89 | 1011.0 |
| 20260505124503 | 26 | 200 | 11.3 | 0.0 | 0.00 | 0.00 | 0.00 | 89 | 1010.0 |
| 20260505123003 | 25 | 200 | 11.3 | 0.0 | 0.00 | 0.00 | 0.00 | 89 | 1010.0 |
| 20260505121503 | 25 | 200 | 11.3 | 0.0 | 0.00 | 0.00 | 0.00 | 89 | 1009.0 |
| 20260505120004 | 25 | 200 | 11.3 | 0.0 | 0.00 | 0.00 | 0.00 | 89 | 1009.0 |
| 20260505114503 | 25 | 200 | 11.3 | 0.0 | 0.00 | 0.00 | 0.00 | 89 | 1009.0 |
| 20260505113004 | 27 | 110 | 14.5 | 0.0 | 0.00 | 0.00 | 0.00 | 89 | 1009.0 |
| 20260505111503 | 27 | 110 | 14.5 | 0.0 | 0.00 | 0.00 | 0.00 | 89 | 1008.0 |
| 20260505101504 | 30 | 300 | 14.5 | 0.0 | 0.00 | 0.00 | 0.00 | 79 | 1008.0 |
| 20260505100003 | 30 | 320 | 12.9 | 0.0 | 0.00 | 0.00 | 0.00 | 74 | 1008.0 |
| 20260505094503 | 30 | 320 | 12.9 | 0.0 | 0.00 | 0.00 | 0.00 | 74 | 1008.0 |
| 20260505093003 | 30 | 330 | 12.9 | 0.0 | 0.00 | 0.00 | 0.00 | 74 | 1008.0 |
| 20260505091504 | 31 | 360 | 12.9 | 0.0 | 0.00 | 0.00 | 0.00 | 66 | 1007.0 |
| 20260505090003 | 31 | 360 | 12.9 | 0.0 | 0.00 | 0.00 | 0.00 | 66 | 1007.0 |
| 20260505084503 | 31 | 360 | 12.9 | 0.0 | 0.00 | 0.00 | 0.00 | 72 | 1007.0 |
| 20260505083003 | 32 | 50 | 14.5 | 0.0 | 0.00 | 0.00 | 0.00 | 69 | 1007.0 |
| 20260505081503 | 32 | 50 | 14.5 | 0.0 | 0.00 | 0.00 | 0.00 | 68 | 1007.0 |
| 20260505080003 | 32 | 120 | 12.9 | 0.0 | 0.00 | 0.00 | 0.00 | 68 | 1007.0 |
| 20260505074504 | 32 | 120 | 12.9 | 0.0 | 0.00 | 0.00 | 0.00 | 68 | 1007.0 |
| 20260505073003 | 32 | 120 | 12.9 | 0.0 | 0.00 | 0.00 | 0.00 | 68 | 1007.0 |
| 20260505071504 | 32 | 120 | 12.9 | 0.0 | 0.00 | 0.00 | 0.00 | 68 | 1008.0 |
| 20260505070003 | 32 | 120 | 12.9 | 0.0 | 0.00 | 0.00 | 0.00 | 68 | 1008.0 |
| 20260505064503 | 32 | 120 | 12.9 | 0.0 | 0.00 | 0.00 | 0.00 | 69 | 1008.0 |
| 20260505063003 | 32 | 120 | 12.9 | 0.0 | 0.00 | 0.00 | 0.00 | 70 | 1008.0 |
| 20260505061503 | 32 | 120 | 12.9 | 0.0 | 0.00 | 0.00 | 0.00 | 70 | 1008.0 |
| 20260505060004 | 32 | 120 | 12.9 | 0.0 | 0.00 | 0.00 | 0.00 | 70 | 1008.0 |
| 20260505054503 | 32 | 120 | 12.9 | 0.0 | 0.00 | 0.00 | 0.00 | 70 | 1008.0 |
| 20260505053003 | 32 | 100 | 11.3 | 0.0 | 0.00 | 0.00 | 0.00 | 71 | 1008.0 |
| 20260505051504 | 32 | 100 | 11.3 | 0.0 | 0.00 | 0.00 | 0.00 | 71 | 1009.0 |
| 20260505041505 | 32 | 71 | 9.7 | 9.7 | 0.00 | 0.00 | 0.00 | 74 | 1010.0 |
| 20260505040008 | 31 | 71 | 9.7 | 9.7 | 0.00 | 0.00 | 0.00 | 71 | 1010.0 |
| 20260505034506 | 31 | 71 | 9.7 | 9.7 | 0.00 | 0.00 | 0.00 | 73 | 1010.0 |
| 20260505033006 | 31 | 71 | 9.7 | 9.7 | 0.00 | 0.00 | 0.00 | 72 | 1010.0 |
| 20260505031506 | 31 | 79 | 8.0 | 9.7 | 0.00 | 0.00 | 0.00 | 79 | 1011.0 |
| 20260505030010 | 31 | 79 | 8.0 | 9.7 | 0.00 | 0.00 | 0.00 | 75 | 1011.0 |
| 20260505024505 | 31 | 79 | 8.0 | 9.7 | 0.00 | 0.00 | 0.00 | 78 | 1011.0 |
| 20260505023005 | 31 | 79 | 8.0 | 9.7 | 0.00 | 0.00 | 0.00 | 76 | 1011.0 |
| 20260505021505 | 30 | 93 | 6.4 | 9.7 | 0.00 | 0.00 | 0.00 | 83 | 1011.0 |
| 20260505020009 | 30 | 93 | 6.4 | 9.7 | 0.00 | 0.00 | 0.00 | 80 | 1011.0 |
| 20260505014506 | 30 | 93 | 6.4 | 9.7 | 0.00 | 0.00 | 0.00 | 83 | 1011.0 |
| 20260505013006 | 30 | 93 | 6.4 | 9.7 | 0.00 | 0.00 | 0.00 | 81 | 1011.0 |
| 20260505011506 | 30 | 114 | 6.4 | 9.7 | 0.00 | 0.00 | 0.00 | 88 | 1011.0 |
| 20260505010007 | 29 | 114 | 6.4 | 9.7 | 0.00 | 0.00 | 0.00 | 85 | 1011.0 |
| 20260505004506 | 28 | 114 | 6.4 | 9.7 | 0.00 | 0.00 | 0.00 | 88 | 1011.0 |
| 20260505003006 | 28 | 114 | 6.4 | 9.7 | 0.00 | 0.00 | 0.00 | 87 | 1011.0 |
| 20260505001505 | 28 | 135 | 6.4 | 9.7 | 0.00 | 0.00 | 0.00 | 91 | 1010.0 |
| 20260505000006 | 28 | 135 | 6.4 | 9.7 | 0.00 | 0.00 | 0.00 | 91 | 1010.0 |
| 20260504234506 | 28 | 134 | 4.8 | 8.0 | 0.00 | 0.00 | 0.00 | 92 | 1010.0 |
| 20260504233006 | 28 | 134 | 4.8 | 8.0 | 0.00 | 0.00 | 0.00 | 92 | 1010.0 |
| 20260504231505 | 28 | 155 | 6.4 | 8.0 | 0.00 | 0.00 | 0.00 | 93 | 1009.0 |
| 20260504230008 | 27 | 155 | 6.4 | 8.0 | 0.00 | 0.00 | 0.00 | 93 | 1010.0 |
| 20260504224505 | 27 | 155 | 6.4 | 8.0 | 0.00 | 0.00 | 0.00 | 93 | 1009.0 |